Weather History for KLOL - October, 2013

Change the Weather History Date:

Wednesday, October 9, 2013

  Actual Average Record
Temperature  
Mean Temperature 52 °F -  
Max Temperature 59 °F 73 °F 89 °F (1996)
Min Temperature 46 °F 36 °F 21 °F (1968)
Degree Days  
Heating Degree Days 12    
Growing Degree Days 2 (Base 50)    
Moisture  
Dew Point 31 °F    
Average Humidity 46    
Maximum Humidity 68    
Minimum Humidity 36    
Precipitation  
Precipitation 0.00 in - - ()
Sea Level Pressure  
Sea Level Pressure 29.67 in    
Wind  
Wind Speed 17 mph (NNE)    
Max Wind Speed 25 mph    
Max Gust Speed 37 mph    
Visibility 10 miles    
Events Rain    
Averages and records for this station are not official NWS values.
T = Trace of Precipitation, MM = Missing Value Source: NWS Daily Summary

Daily Weather History Graph

Daily Weather History Graph

Search for Another Location

Airport or City:

Trip Planner

Search our weather history database for the weather conditions in past years. The results will help you decide how hot, cold, wet, or windy it might be!

Date:

Astronomy

Oct. 09, 2013 Rise Set
Actual Time 6:58 AM PDT 6:23 PM PDT
Civil Twilight 6:31 AM PDT 6:50 PM PDT
Nautical Twilight 6:00 AM PDT 7:21 PM PDT
Astronomical Twilight 5:28 AM PDT 7:53 PM PDT
Moon 11:59 AM PDT (10/9) 10:02 PM PDT (10/9)
Length of Visible Light 12h 18m
Length of Day
11h 24m
Waxing Crescent, 26% of the Moon is Illuminated
Oct 9
Waxing Crescent
Oct 11
First Quarter
Oct 18
Full
Oct 26
Last Quarter
Nov 3
New

Hourly Weather History & Observations

Time (PDT) Temp. Dew Point Humidity Pressure Visibility Wind Dir Wind Speed Gust Speed Precip Events Conditions
12:53 AM 50.0 °F 24.1 °F 36% 29.65 in 10.0 mi NE 18.4 mph - N/A   Overcast
1:53 AM 48.9 °F 25.0 °F 39% 29.63 in 10.0 mi NE 19.6 mph - N/A   Overcast
2:53 AM 48.9 °F 26.1 °F 41% 29.61 in 10.0 mi NE 17.3 mph 28.8 mph N/A   Mostly Cloudy
3:53 AM 48.0 °F 26.1 °F 42% 29.60 in 9.0 mi NE 25.3 mph 36.8 mph 0.00 in   Overcast
4:53 AM 48.0 °F 26.1 °F 42% 29.61 in 10.0 mi North 15.0 mph - N/A   Overcast
5:53 AM 48.0 °F 27.0 °F 44% 29.64 in 10.0 mi NNE 11.5 mph - N/A   Overcast
6:53 AM 46.9 °F 28.9 °F 50% 29.66 in 10.0 mi NE 15.0 mph - N/A   Mostly Cloudy
7:53 AM 46.9 °F 30.0 °F 52% 29.68 in 10.0 mi NNE 17.3 mph - N/A   Scattered Clouds
8:53 AM 46.9 °F 32.0 °F 56% 29.70 in 10.0 mi NE 21.9 mph 25.3 mph N/A   Overcast
9:53 AM 46.9 °F 33.1 °F 59% 29.72 in 10.0 mi NNE 23.0 mph 32.2 mph N/A   Overcast
10:53 AM 46.9 °F 34.0 °F 61% 29.71 in 10.0 mi NE 24.2 mph 32.2 mph N/A   Overcast
11:53 AM 46.9 °F 37.0 °F 68% 29.72 in 10.0 mi NE 23.0 mph - 0.00 in Rain Light Rain
12:53 PM 51.1 °F 37.0 °F 59% 29.69 in 10.0 mi NE 18.4 mph - 0.00 in   Mostly Cloudy
1:53 PM 54.0 °F 36.0 °F 51% 29.67 in 10.0 mi NE 18.4 mph - N/A   Partly Cloudy
2:53 PM 55.9 °F 36.0 °F 47% 29.66 in 10.0 mi NNE 16.1 mph - N/A   Clear
3:53 PM 57.9 °F 34.0 °F 41% 29.66 in 10.0 mi NE 10.4 mph 18.4 mph N/A   Scattered Clouds
4:53 PM 59.0 °F 34.0 °F 39% 29.65 in 10.0 mi NE 11.5 mph - N/A   Clear
5:53 PM 57.9 °F 33.1 °F 39% 29.66 in 10.0 mi NNE 9.2 mph - N/A   Clear
6:53 PM 53.1 °F 30.9 °F 43% 29.68 in 10.0 mi North 4.6 mph - N/A   Clear
7:53 PM 54.0 °F 28.9 °F 38% 29.68 in 10.0 mi North 10.4 mph - N/A   Partly Cloudy
8:53 PM 51.1 °F 28.0 °F 41% 29.71 in 10.0 mi NNE 9.2 mph - N/A   Partly Cloudy
9:53 PM 50.0 °F 28.0 °F 43% 29.72 in 10.0 mi NNE 9.2 mph - N/A   Partly Cloudy
10:53 PM 53.1 °F 28.9 °F 40% 29.73 in 10.0 mi NNE 5.8 mph - N/A   Overcast
11:53 PM 52.0 °F 28.0 °F 40% 29.73 in 10.0 mi NE 9.2 mph 19.6 mph N/A   Overcast